| time (UTC) | temp F | wind direction | speed MPH | gust MPH | rain 1hr in | rain 24hr in | rain mn in | humidity % | barometer mb |
| 20260902191349 | 67 | 220 | 1.0 | 4.0 | 0.00 | 0.00 | 0.00 | 83 | 1019.4 |
| 20260902190334 | 67 | 241 | 3.0 | 8.0 | 0.00 | 0.00 | 0.00 | 82 | 1019.4 |
| 20260902185323 | 67 | 269 | 3.0 | 6.0 | 0.00 | 0.00 | 0.00 | 81 | 1019.6 |
| 20260902184324 | 67 | 217 | 2.0 | 5.0 | 0.00 | 0.00 | 0.00 | 80 | 1019.5 |
| 20260902183321 | 67 | 225 | 2.0 | 3.0 | 0.00 | 0.00 | 0.00 | 80 | 1019.4 |
| 20260902182338 | 67 | 230 | 1.0 | 4.0 | 0.00 | 0.00 | 0.00 | 79 | 1019.4 |
| 20260902181333 | 68 | 261 | 2.0 | 5.0 | 0.00 | 0.00 | 0.00 | 79 | 1019.5 |
| 20260902180350 | 68 | 246 | 3.0 | 5.0 | 0.00 | 0.00 | 0.00 | 78 | 1019.5 |
| 20260902175335 | 68 | 247 | 2.0 | 5.0 | 0.00 | 0.00 | 0.00 | 77 | 1019.6 |
| 20260902174326 | 68 | 300 | 2.0 | 4.0 | 0.00 | 0.00 | 0.00 | 77 | 1019.6 |
| 20260902173322 | 68 | 289 | 1.0 | 6.0 | 0.00 | 0.00 | 0.00 | 76 | 1019.6 |
| 20260902172333 | 68 | 208 | 3.0 | 9.0 | 0.00 | 0.00 | 0.00 | 76 | 1019.6 |
| 20260902171327 | 68 | 217 | 5.0 | 10.0 | 0.00 | 0.00 | 0.00 | 75 | 1019.6 |
| 20260902170350 | 69 | 203 | 4.0 | 8.0 | 0.00 | 0.00 | 0.00 | 75 | 1019.5 |
| 20260902165335 | 69 | 266 | 4.0 | 9.0 | 0.00 | 0.00 | 0.00 | 75 | 1019.6 |
| 20260902164329 | 69 | 250 | 2.0 | 6.0 | 0.00 | 0.00 | 0.00 | 76 | 1019.7 |
| 20260902163327 | 69 | 227 | 4.0 | 9.0 | 0.00 | 0.00 | 0.00 | 76 | 1019.6 |
| 20260902162347 | 69 | 213 | 5.0 | 8.0 | 0.00 | 0.00 | 0.00 | 75 | 1019.7 |
| 20260902161336 | 69 | 245 | 3.0 | 9.0 | 0.00 | 0.00 | 0.00 | 75 | 1019.8 |
| 20260902160355 | 69 | 292 | 3.0 | 6.0 | 0.00 | 0.00 | 0.00 | 74 | 1019.8 |
| 20260902155328 | 70 | 198 | 3.0 | 6.0 | 0.00 | 0.00 | 0.00 | 74 | 1020.0 |
| 20260902154345 | 69 | 230 | 4.0 | 10.0 | 0.00 | 0.00 | 0.00 | 74 | 1020.0 |
| 20260902153336 | 69 | 236 | 5.0 | 12.0 | 0.00 | 0.00 | 0.00 | 77 | 1020.1 |
| 20260902152333 | 69 | 263 | 4.0 | 9.0 | 0.00 | 0.00 | 0.00 | 77 | 1020.2 |
| 20260902151329 | 69 | 217 | 3.0 | 11.0 | 0.00 | 0.00 | 0.00 | 77 | 1020.2 |
| 20260902150342 | 69 | 261 | 3.0 | 13.0 | 0.00 | 0.00 | 0.00 | 77 | 1020.3 |
| 20260902145321 | 69 | 250 | 4.0 | 12.0 | 0.00 | 0.00 | 0.00 | 75 | 1020.3 |
| 20260902144334 | 69 | 237 | 4.0 | 9.0 | 0.00 | 0.00 | 0.00 | 75 | 1020.5 |
| 20260902143334 | 69 | 219 | 5.0 | 12.0 | 0.00 | 0.00 | 0.00 | 72 | 1020.4 |
| 20260902142347 | 70 | 296 | 3.0 | 10.0 | 0.00 | 0.00 | 0.00 | 73 | 1020.4 |
| 20260902141321 | 70 | 203 | 5.0 | 10.0 | 0.00 | 0.00 | 0.00 | 72 | 1020.4 |
| 20260902140326 | 70 | 221 | 6.0 | 13.0 | 0.00 | 0.00 | 0.00 | 70 | 1020.4 |
| 20260902135323 | 71 | 196 | 5.0 | 11.0 | 0.00 | 0.00 | 0.00 | 70 | 1020.3 |
| 20260902134335 | 72 | 219 | 4.0 | 11.0 | 0.00 | 0.00 | 0.00 | 69 | 1020.3 |
| 20260902133349 | 72 | 225 | 4.0 | 12.0 | 0.00 | 0.00 | 0.00 | 69 | 1020.3 |
| 20260902132340 | 73 | 248 | 6.0 | 12.0 | 0.00 | 0.00 | 0.00 | 67 | 1020.3 |
| 20260902131344 | 72 | 286 | 6.0 | 13.0 | 0.00 | 0.00 | 0.00 | 69 | 1020.3 |
| 20260902130337 | 72 | 248 | 6.0 | 13.0 | 0.00 | 0.00 | 0.00 | 69 | 1020.3 |
| 20260902125339 | 72 | 272 | 3.0 | 11.0 | 0.00 | 0.00 | 0.00 | 72 | 1020.2 |
| 20260902124351 | 71 | 297 | 3.0 | 9.0 | 0.00 | 0.00 | 0.00 | 73 | 1020.3 |
| 20260902123344 | 70 | 192 | 4.0 | 10.0 | 0.00 | 0.00 | 0.00 | 74 | 1020.3 |
| 20260902122334 | 70 | 254 | 3.0 | 13.0 | 0.00 | 0.00 | 0.00 | 76 | 1020.3 |
| 20260902121330 | 70 | 288 | 5.0 | 10.0 | 0.00 | 0.00 | 0.00 | 74 | 1020.3 |
| 20260902120338 | 69 | 285 | 3.0 | 7.0 | 0.00 | 0.00 | 0.00 | 80 | 1020.2 |
| 20260902115320 | 68 | 230 | 1.0 | 5.0 | 0.00 | 0.00 | 0.00 | 81 | 1020.4 |
| 20260902114328 | 68 | 208 | 0.0 | 6.0 | 0.00 | 0.00 | 0.00 | 82 | 1020.5 |
| 20260902113321 | 68 | 203 | 3.0 | 9.0 | 0.00 | 0.00 | 0.00 | 82 | 1020.5 |
| 20260902112320 | 68 | 254 | 4.0 | 10.0 | 0.00 | 0.00 | 0.00 | 81 | 1020.6 |
| 20260902111323 | 68 | 268 | 4.0 | 9.0 | 0.00 | 0.00 | 0.00 | 80 | 1020.6 |
| 20260902110324 | 69 | 277 | 3.0 | 8.0 | 0.00 | 0.00 | 0.00 | 81 | 1020.6 |
| 20260902105332 | 69 | 217 | 3.0 | 6.0 | 0.00 | 0.00 | 0.00 | 80 | 1020.5 |
| 20260902104325 | 69 | 242 | 3.0 | 10.0 | 0.00 | 0.00 | 0.00 | 79 | 1020.5 |
| 20260902103332 | 70 | 253 | 0.0 | 0.0 | 0.00 | 0.00 | 0.00 | 79 | 1020.4 |
| 20260902102326 | 71 | 234 | 0.0 | 0.0 | 0.00 | 0.00 | 0.00 | 79 | 1020.4 |
| 20260902101343 | 71 | 219 | 0.0 | 0.0 | 0.00 | 0.00 | 0.00 | 79 | 1020.5 |
| 20260902100349 | 71 | 188 | 0.0 | 0.0 | 0.00 | 0.00 | 0.00 | 80 | 1020.5 |
| 20260902095355 | 69 | 277 | 0.0 | 0.0 | 0.00 | 0.00 | 0.00 | 83 | 1020.5 |
| 20260902094323 | 68 | 219 | 0.0 | 0.0 | 0.00 | 0.00 | 0.00 | 85 | 1020.5 |
| 20260902093333 | 68 | 223 | 0.0 | 0.0 | 0.00 | 0.00 | 0.00 | 86 | 1020.5 |
| 20260902092323 | 67 | 208 | 0.0 | 0.0 | 0.00 | 0.00 | 0.00 | 87 | 1020.6 |
| 20260902091336 | 67 | 217 | 0.0 | 0.0 | 0.00 | 0.00 | 0.00 | 87 | 1020.6 |
| 20260902090331 | 66 | 221 | 0.0 | 0.0 | 0.00 | 0.00 | 0.00 | 88 | 1020.6 |
| 20260902085343 | 66 | 292 | 0.0 | 0.0 | 0.00 | 0.00 | 0.00 | 89 | 1020.5 |
| 20260902084400 | 65 | 220 | 0.0 | 0.0 | 0.00 | 0.00 | 0.00 | 90 | 1020.5 |
| 20260902083325 | 65 | 242 | 0.0 | 0.0 | 0.00 | 0.00 | 0.00 | 90 | 1020.3 |
| 20260902082333 | 64 | 197 | 0.0 | 0.0 | 0.00 | 0.00 | 0.00 | 91 | 1020.2 |
| 20260902081322 | 64 | 165 | 0.0 | 0.0 | 0.00 | 0.00 | 0.00 | 91 | 1020.1 |
| 20260902080331 | 63 | 208 | 0.0 | 0.0 | 0.00 | 0.00 | 0.00 | 92 | 1020.1 |
| 20260902075336 | 63 | 231 | 0.0 | 0.0 | 0.00 | 0.00 | 0.00 | 92 | 1019.9 |
| 20260902074326 | 63 | 246 | 0.0 | 0.0 | 0.00 | 0.00 | 0.00 | 92 | 1020.0 |
| 20260902073334 | 62 | 256 | 0.0 | 0.0 | 0.00 | 0.00 | 0.00 | 92 | 1019.8 |
| 20260902072344 | 61 | 181 | 0.0 | 0.0 | 0.00 | 0.00 | 0.00 | 92 | 1019.8 |
| 20260902071331 | 61 | 203 | 0.0 | 0.0 | 0.00 | 0.00 | 0.00 | 92 | 1019.7 |
| 20260902070321 | 60 | 224 | 0.0 | 0.0 | 0.00 | 0.00 | 0.00 | 92 | 1019.8 |
| 20260902065347 | 60 | 208 | 0.0 | 0.0 | 0.00 | 0.00 | 0.00 | 92 | 1019.8 |
| 20260902064328 | 60 | 213 | 0.0 | 0.0 | 0.00 | 0.00 | 0.00 | 92 | 1019.7 |
| 20260902063322 | 59 | 213 | 0.0 | 0.0 | 0.00 | 0.00 | 0.00 | 92 | 1019.6 |
| 20260902062333 | 59 | 236 | 0.0 | 0.0 | 0.00 | 0.00 | 0.00 | 92 | 1019.7 |
| 20260902061323 | 59 | 192 | 0.0 | 0.0 | 0.00 | 0.00 | 0.00 | 92 | 1019.7 |
| 20260902060328 | 58 | 208 | 0.0 | 0.0 | 0.00 | 0.00 | 0.00 | 92 | 1019.6 |
| 20260902055321 | 58 | 213 | 0.0 | 0.0 | 0.00 | 0.00 | 0.00 | 92 | 1019.6 |
| 20260902054335 | 58 | 239 | 0.0 | 0.0 | 0.00 | 0.00 | 0.00 | 92 | 1019.6 |
| 20260902053328 | 58 | 232 | 0.0 | 0.0 | 0.00 | 0.00 | 0.00 | 92 | 1019.5 |
| 20260902052357 | 58 | 194 | 0.0 | 0.0 | 0.00 | 0.00 | 0.00 | 91 | 1019.4 |
| 20260902051323 | 58 | 203 | 0.0 | 0.0 | 0.00 | 0.00 | 0.00 | 91 | 1019.4 |
| 20260902050407 | 58 | 165 | 0.0 | 0.0 | 0.00 | 0.00 | 0.00 | 91 | 1019.5 |
| 20260902045329 | 58 | 187 | 0.0 | 0.0 | 0.00 | 0.00 | 0.00 | 91 | 1019.3 |
| 20260902044322 | 58 | 218 | 0.0 | 0.0 | 0.00 | 0.00 | 0.00 | 91 | 1019.4 |
| 20260902043339 | 58 | 217 | 0.0 | 0.0 | 0.00 | 0.00 | 0.00 | 91 | 1019.3 |
| 20260902042332 | 58 | 219 | 0.0 | 0.0 | 0.00 | 0.00 | 0.00 | 91 | 1019.3 |
| 20260902041330 | 58 | 213 | 0.0 | 0.0 | 0.00 | 0.00 | 0.00 | 91 | 1019.4 |
| 20260902040348 | 58 | 171 | 0.0 | 0.0 | 0.00 | 0.00 | 0.00 | 90 | 1019.4 |
| 20260902035341 | 58 | 193 | 0.0 | 0.0 | 0.00 | 0.00 | 0.00 | 91 | 1019.3 |
| 20260902034348 | 58 | 180 | 0.0 | 0.0 | 0.00 | 0.00 | 0.00 | 91 | 1019.4 |
| 20260902033326 | 59 | 151 | 0.0 | 0.0 | 0.00 | 0.00 | 0.00 | 91 | 1019.5 |
| 20260902032357 | 58 | 183 | 0.0 | 0.0 | 0.00 | 0.00 | 0.00 | 91 | 1019.6 |
| 20260902031322 | 58 | 198 | 0.0 | 0.0 | 0.00 | 0.00 | 0.00 | 90 | 1019.6 |
| 20260902030329 | 58 | 159 | 0.0 | 0.0 | 0.00 | 0.00 | 0.00 | 90 | 1019.7 |
| 20260902025334 | 59 | 223 | 0.0 | 0.0 | 0.00 | 0.00 | 0.00 | 90 | 1019.7 |
| 20260902024323 | 59 | 221 | 0.0 | 0.0 | 0.00 | 0.00 | 0.00 | 90 | 1019.8 |
| 20260902023331 | 59 | 221 | 0.0 | 0.0 | 0.00 | 0.00 | 0.00 | 90 | 1019.8 |
| 20260902022355 | 59 | 170 | 0.0 | 0.0 | 0.00 | 0.00 | 0.00 | 90 | 1019.8 |
| 20260902021324 | 59 | 171 | 0.0 | 0.0 | 0.00 | 0.00 | 0.00 | 90 | 1019.9 |
| 20260902020346 | 59 | 169 | 0.0 | 0.0 | 0.00 | 0.00 | 0.00 | 90 | 1019.8 |
| 20260902015358 | 59 | 186 | 0.0 | 0.0 | 0.00 | 0.04 | 0.00 | 90 | 1019.9 |
| 20260902014349 | 58 | 194 | 0.0 | 0.0 | 0.00 | 0.04 | 0.00 | 90 | 1019.9 |
| 20260902013322 | 58 | 192 | 0.0 | 0.0 | 0.00 | 0.04 | 0.00 | 90 | 1020.0 |
| 20260902012405 | 58 | 193 | 0.0 | 0.0 | 0.00 | 0.04 | 0.00 | 90 | 1019.9 |
| 20260902011355 | 58 | 193 | 0.0 | 0.0 | 0.00 | 0.04 | 0.00 | 90 | 1020.0 |
| 20260902010331 | 58 | 193 | 0.0 | 0.0 | 0.00 | 0.04 | 0.00 | 89 | 1020.1 |
| 20260902005406 | 58 | 194 | 0.0 | 0.0 | 0.00 | 0.04 | 0.00 | 89 | 1020.2 |
| 20260902004350 | 58 | 203 | 0.0 | 0.0 | 0.00 | 0.04 | 0.00 | 89 | 1020.2 |
| 20260902003336 | 57 | 208 | 0.0 | 0.0 | 0.00 | 0.04 | 0.00 | 88 | 1020.2 |
| 20260902002332 | 57 | 282 | 0.0 | 0.0 | 0.00 | 0.04 | 0.00 | 88 | 1020.3 |
| 20260902001339 | 57 | 282 | 0.0 | 0.0 | 0.00 | 0.04 | 0.00 | 88 | 1020.2 |
| 20260902000332 | 57 | 282 | 0.0 | 0.0 | 0.00 | 0.04 | 0.00 | 87 | 1020.3 |
| 20260901235326 | 57 | 282 | 0.0 | 0.0 | 0.00 | 0.04 | 0.00 | 87 | 1020.3 |
| 20260901234338 | 57 | 282 | 0.0 | 0.0 | 0.00 | 0.04 | 0.00 | 87 | 1020.3 |
| 20260901233332 | 58 | 282 | 0.0 | 0.0 | 0.00 | 0.04 | 0.00 | 87 | 1020.3 |
| 20260901232339 | 58 | 282 | 0.0 | 0.0 | 0.00 | 0.04 | 0.00 | 87 | 1020.4 |
| 20260901231332 | 58 | 282 | 0.0 | 0.0 | 0.00 | 0.04 | 0.00 | 87 | 1020.4 |
| 20260901230342 | 58 | 282 | 0.0 | 0.0 | 0.00 | 0.04 | 0.00 | 87 | 1020.6 |
| 20260901225334 | 58 | 282 | 0.0 | 1.0 | 0.00 | 1.34 | 0.00 | 86 | 1020.7 |
| 20260901224347 | 58 | 282 | 0.0 | 0.0 | 0.00 | 1.34 | 0.00 | 86 | 1020.7 |
| 20260901223359 | 58 | 282 | 0.0 | 0.0 | 0.00 | 1.34 | 0.00 | 86 | 1020.6 |
| 20260901222356 | 59 | 282 | 0.0 | 0.0 | 0.00 | 1.34 | 0.00 | 86 | 1020.6 |
| 20260901221327 | 59 | 282 | 0.0 | 0.0 | 0.00 | 1.34 | 0.00 | 85 | 1020.6 |
| 20260901220337 | 59 | 282 | 0.0 | 0.0 | 0.00 | 1.34 | 0.00 | 85 | 1020.6 |
| 20260901215343 | 59 | 282 | 0.0 | 0.0 | 0.00 | 1.38 | 0.27 | 85 | 1020.6 |
| 20260901214321 | 59 | 282 | 0.0 | 0.0 | 0.00 | 1.38 | 0.27 | 84 | 1020.6 |
| 20260901213342 | 60 | 282 | 0.0 | 0.0 | 0.00 | 1.38 | 0.27 | 84 | 1020.7 |
| 20260901212337 | 60 | 282 | 0.0 | 0.0 | 0.00 | 1.38 | 0.27 | 84 | 1020.4 |
| 20260901211353 | 60 | 282 | 0.0 | 0.0 | 0.00 | 1.38 | 0.27 | 83 | 1020.6 |
| 20260901210351 | 60 | 282 | 0.0 | 0.0 | 0.00 | 1.38 | 0.27 | 83 | 1020.9 |
| 20260901205322 | 60 | 282 | 0.0 | 0.0 | 0.00 | 1.38 | 0.27 | 83 | 1021.0 |
| 20260901204319 | 60 | 282 | 0.0 | 0.0 | 0.00 | 1.38 | 0.27 | 82 | 1021.1 |
| 20260901203332 | 60 | 284 | 0.0 | 0.0 | 0.00 | 1.38 | 0.27 | 81 | 1021.0 |
| 20260901202332 | 61 | 282 | 0.0 | 0.0 | 0.00 | 1.38 | 0.27 | 81 | 1021.1 |
| 20260901201325 | 61 | 282 | 0.0 | 0.0 | 0.00 | 1.38 | 0.27 | 80 | 1021.1 |
| 20260901200354 | 61 | 282 | 0.0 | 0.0 | 0.00 | 1.38 | 0.27 | 79 | 1021.0 |
| 20260901195357 | 61 | 283 | 0.0 | 0.0 | 0.00 | 1.38 | 0.27 | 78 | 1021.0 |
| 20260901194325 | 62 | 282 | 0.0 | 0.0 | 0.00 | 1.38 | 0.27 | 77 | 1020.9 |
| 20260901193414 | 62 | 283 | 0.0 | 0.0 | 0.00 | 1.38 | 0.27 | 76 | 1020.8 |
| 20260901192328 | 63 | 283 | 0.0 | 0.0 | 0.00 | 1.38 | 0.27 | 75 | 1020.6 |